{"data":{"norad_id":51992,"epoch":"2026-09-20T01:37:08.870592Z","epoch_age_seconds":92853,"freshness":"FRESH","line1":"1 51992U 22025AN  26263.06746378  .00000296  00000+0  19910-4 0  9997","line2":"2 51992  53.1585 211.6640 0001183  86.4227 273.6911 15.34388850250457","mean_motion":15.3438885,"eccentricity":0.0001183,"inclination_deg":53.1585,"raan_deg":211.664,"arg_perigee_deg":86.4227,"mean_anomaly_deg":273.6911,"bstar":1.991e-5,"rev_number":25045,"period_min":93.848440048297,"perigee_km":461.92710523662,"apogee_km":463.54565587846,"semimajor_km":6840.8733805575,"source":"CELESTRAK","updated_at":"2026-09-20T09:00:39.981602Z"}}